星链-3601 (STARLINK-3601 )

导读

STARLINK-3601是美国太空探索技术公司(SpaceX)星链(Starlink)计划的卫星,于2022年2月25日发射升空,属于星链星座组网卫星,主要服务于全球卫星互联网项目,旨在为全球多地提供低延迟、宽带互联网覆盖,目前该卫星已在轨运行多年,服务星链相关通信业务。

Basic Information
目录编号:
51804
目录名称:
STARLINK-3601
国际标识:
2022-017AN
轨道中心:
EARTH
卫星名称:
星链-3601
卫星全名:
星链-3601 (STARLINK-3601 )
卫星状态:
在轨 (已飞行1573 天)
发射日期:
2022-02-25 UTC
国别 :
美国 (US)
星等 :
--
Orbit Information
数据来源 国际轨道数据 AOE轨道数据
星历时间 2026-06-17T20:16:59+0800
8小时前
查看轨道信息
2026-06-16T10:00:00+0800
1天前
查看轨道信息
半长轴 6917.913km 6917.882km
偏心率 0.0001088 0.0000939
轨道倾角 53.160° 53.160°
近地点辐角 90.039° 72.026°
升交点赤经 240.904° 247.326°
平近点角 270.073° 84.730°
近地点 539.023km 539.095km
远地点 540.529km 540.395km
周期 95.438分钟 95.438分钟
每日圈数 15.088296 15.088397
Detailed Information
固有亮度:
5
最大亮度:
2.5
卫星平台:
Starlink v1.5
覆盖范围:
全球
运营商:
太空探索技术公司
运营商所在国:
美国
制造商(研发单位):
太空探索技术公司
制造商所在国:
美国
使用方式:
暂无
Satellite Introduction
星链(Starlink)计划是由太空探索技术公司(SpaceX)提出的一个巨型低轨卫星互联网星座项目,计划在2019年至2024年间在太空搭建由约1.2万颗卫星组成的“星链”网络,其中1584颗将部署在地球上空550千米处的近地轨道,并从2020年开始工作。该卫星仍在工作。
2D Orbit Map
3D Orbit Map
Orbit Altitude Analysis Chart
Orbit Inclination Analysis Chart
Orbit Comprehensive Analysis Chart
View Comprehensive Chart